TimeCDT,TemperatureF,Dew PointF,Humidity,Sea Level PressureIn,VisibilityMPH,Wind Direction,Wind SpeedMPH,Gust SpeedMPH,PrecipitationIn,Events,Conditions,WindDirDegrees,DateUTC
12:15 AM,80.6,29.3,15,29.81,10.0,South,16.1,-,N/A,,Clear,170,2014-05-05 05:15:00
12:35 AM,79.9,30.0,16,29.81,10.0,South,18.4,21.9,N/A,,Clear,170,2014-05-05 05:35:00
12:55 AM,79.3,30.2,17,29.82,10.0,South,16.1,-,N/A,,Clear,180,2014-05-05 05:55:00
1:15 AM,78.3,30.2,17,29.82,10.0,South,15.0,19.6,N/A,,Clear,190,2014-05-05 06:15:00
1:35 AM,76.8,30.7,19,29.82,10.0,South,11.5,-,N/A,,Clear,190,2014-05-05 06:35:00
1:55 AM,75.7,31.1,19,29.82,10.0,South,10.4,17.3,N/A,,Clear,190,2014-05-05 06:55:00
2:15 AM,75.4,31.5,20,29.82,10.0,SSW,11.5,-,N/A,,Clear,200,2014-05-05 07:15:00
2:35 AM,75.7,31.5,20,29.81,10.0,SSW,12.7,-,N/A,,Clear,200,2014-05-05 07:35:00
2:55 AM,75.7,31.5,20,29.81,10.0,SSW,13.8,-,N/A,,Clear,200,2014-05-05 07:55:00
3:15 AM,75.0,31.6,20,29.81,10.0,SSW,11.5,-,N/A,,Clear,200,2014-05-05 08:15:00
3:35 AM,73.2,32.0,22,29.81,10.0,South,10.4,-,N/A,,Clear,190,2014-05-05 08:35:00
3:55 AM,70.7,32.0,24,29.81,10.0,South,9.2,-,N/A,,Clear,190,2014-05-05 08:55:00
4:15 AM,70.7,32.0,24,29.81,10.0,SSW,9.2,-,N/A,,Clear,200,2014-05-05 09:15:00
4:35 AM,72.9,31.5,22,29.81,10.0,SSW,11.5,17.3,N/A,,Clear,200,2014-05-05 09:35:00
4:55 AM,72.9,31.1,21,29.81,10.0,SSW,11.5,-,N/A,,Clear,200,2014-05-05 09:55:00
5:15 AM,72.1,31.1,22,29.80,10.0,SSW,11.5,-,N/A,,Clear,200,2014-05-05 10:15:00
5:35 AM,71.2,31.3,23,29.80,10.0,SSW,11.5,-,N/A,,Clear,200,2014-05-05 10:35:00
5:55 AM,70.3,31.6,24,29.80,10.0,SSW,10.4,-,N/A,,Clear,200,2014-05-05 10:55:00
6:15 AM,70.0,31.6,24,29.80,10.0,South,12.7,-,N/A,,Clear,190,2014-05-05 11:15:00
6:35 AM,69.6,32.0,25,29.80,10.0,South,11.5,-,N/A,,Clear,190,2014-05-05 11:35:00
6:55 AM,68.5,32.4,26,29.81,10.0,SSW,9.2,-,N/A,,Clear,200,2014-05-05 11:55:00
7:15 AM,67.3,33.3,28,29.84,10.0,Calm,Calm,-,N/A,,Clear,0,2014-05-05 12:15:00
7:35 AM,66.4,34.2,30,29.83,10.0,South,3.5,-,N/A,,Clear,190,2014-05-05 12:35:00
7:55 AM,67.1,35.4,31,29.84,10.0,SSW,4.6,-,N/A,,Clear,210,2014-05-05 12:55:00
8:15 AM,69.6,35.8,29,29.84,10.0,SSW,6.9,-,N/A,,Clear,210,2014-05-05 13:15:00
8:35 AM,71.6,36.3,28,29.82,10.0,SSW,12.7,-,N/A,,Clear,200,2014-05-05 13:35:00
8:55 AM,74.5,37.2,26,29.82,10.0,SSW,12.7,-,N/A,,Clear,200,2014-05-05 13:55:00
9:15 AM,77.0,36.7,23,29.82,10.0,SSW,16.1,20.7,N/A,,Clear,210,2014-05-05 14:15:00
9:35 AM,79.0,36.3,21,29.81,10.0,SW,15.0,26.5,N/A,,Clear,230,2014-05-05 14:35:00
9:55 AM,80.8,36.1,20,29.81,10.0,SSW,16.1,23.0,N/A,,Clear,210,2014-05-05 14:55:00
10:15 AM,82.0,36.7,20,29.81,10.0,SW,15.0,19.6,N/A,,Clear,220,2014-05-05 15:15:00
10:35 AM,83.7,36.7,19,29.81,10.0,SW,15.0,-,N/A,,Clear,220,2014-05-05 15:35:00
10:55 AM,85.5,36.9,18,29.81,10.0,SSW,15.0,-,N/A,,Clear,210,2014-05-05 15:55:00
11:15 AM,86.9,37.0,17,29.80,10.0,SSW,12.7,17.3,N/A,,Clear,200,2014-05-05 16:15:00
11:35 AM,89.1,36.9,16,29.80,10.0,SSW,13.8,17.3,N/A,,Clear,200,2014-05-05 16:35:00
11:55 AM,91.0,36.3,15,29.79,10.0,SSW,10.4,18.4,N/A,,Clear,210,2014-05-05 16:55:00
12:15 PM,93.2,36.0,13,29.78,10.0,SW,12.7,18.4,N/A,,Clear,220,2014-05-05 17:15:00
12:35 PM,94.8,35.2,12,29.77,10.0,South,10.4,17.3,N/A,,Clear,190,2014-05-05 17:35:00
12:55 PM,96.3,35.4,12,29.76,10.0,South,10.4,17.3,N/A,,Clear,180,2014-05-05 17:55:00
1:15 PM,97.2,36.1,12,29.76,10.0,South,15.0,19.6,N/A,,Clear,180,2014-05-05 18:15:00
1:35 PM,98.1,35.2,11,29.75,10.0,SSW,11.5,-,N/A,,Clear,210,2014-05-05 18:35:00
1:55 PM,99.3,34.3,10,29.73,10.0,South,12.7,17.3,N/A,,Clear,190,2014-05-05 18:55:00
2:15 PM,100.8,34.0,10,29.72,10.0,SSW,12.7,20.7,N/A,,Clear,210,2014-05-05 19:15:00
2:35 PM,101.8,33.3,9,29.71,10.0,South,12.7,18.4,N/A,,Clear,190,2014-05-05 19:35:00
2:55 PM,102.6,33.6,9,29.70,10.0,SSW,15.0,21.9,N/A,,Clear,200,2014-05-05 19:55:00
3:15 PM,103.6,32.2,8,29.69,10.0,South,16.1,19.6,N/A,,Clear,180,2014-05-05 20:15:00
3:35 PM,104.0,30.9,8,29.68,10.0,South,15.0,20.7,N/A,,Clear,190,2014-05-05 20:35:00
3:55 PM,104.5,27.5,7,29.67,10.0,SSW,13.8,17.3,N/A,,Clear,200,2014-05-05 20:55:00
4:15 PM,105.1,25.0,6,29.66,10.0,South,18.4,24.2,N/A,,Clear,190,2014-05-05 21:15:00
4:35 PM,105.1,24.6,6,29.65,10.0,South,12.7,19.6,N/A,,Clear,180,2014-05-05 21:35:00
4:55 PM,105.1,24.8,6,29.64,10.0,South,11.5,20.7,N/A,,Clear,190,2014-05-05 21:55:00
5:15 PM,104.9,21.7,5,29.63,10.0,South,13.8,19.6,N/A,,Clear,190,2014-05-05 22:15:00
5:35 PM,104.4,22.3,5,29.62,10.0,SSE,13.8,-,N/A,,Clear,160,2014-05-05 22:35:00
5:55 PM,104.4,22.6,6,29.62,10.0,South,11.5,-,N/A,,Clear,170,2014-05-05 22:55:00
6:15 PM,104.4,21.7,5,29.61,10.0,South,17.3,-,N/A,,Clear,180,2014-05-05 23:15:00
6:35 PM,103.5,20.1,5,29.61,10.0,SSE,15.0,-,N/A,,Clear,150,2014-05-05 23:35:00
6:55 PM,102.7,19.4,5,29.61,10.0,SSE,10.4,-,N/A,,Clear,160,2014-05-05 23:55:00
7:15 PM,101.5,25.3,7,29.61,10.0,SSE,16.1,19.6,N/A,,Clear,150,2014-05-06 00:15:00
7:35 PM,99.3,39.4,13,29.60,10.0,SSE,20.7,24.2,N/A,,Clear,150,2014-05-06 00:35:00
7:55 PM,97.3,40.1,14,29.61,10.0,SSE,16.1,21.9,N/A,,Clear,160,2014-05-06 00:55:00
8:15 PM,95.7,39.4,14,29.61,10.0,SSE,13.8,-,N/A,,Clear,150,2014-05-06 01:15:00
8:35 PM,-9999,-9999,N/A,29.62,10.0,SSE,10.4,-,N/A,,Unknown,150,2014-05-06 01:35:00
8:55 PM,91.6,40.1,17,29.63,10.0,SSE,12.7,-,N/A,,Clear,160,2014-05-06 01:55:00
9:15 PM,91.4,40.3,17,29.64,10.0,SSE,13.8,-,N/A,,Clear,150,2014-05-06 02:15:00
9:35 PM,90.5,41.9,18,29.64,10.0,SSE,15.0,-,N/A,,Clear,150,2014-05-06 02:35:00
9:55 PM,89.2,44.2,21,29.65,10.0,SSE,18.4,25.3,N/A,,Clear,150,2014-05-06 02:55:00
10:15 PM,88.5,46.6,23,29.66,10.0,SSE,17.3,21.9,N/A,,Clear,160,2014-05-06 03:15:00
10:35 PM,87.6,47.8,25,29.67,10.0,SSE,16.1,21.9,N/A,,Clear,160,2014-05-06 03:35:00
10:55 PM,86.9,48.4,26,29.67,10.0,SSE,21.9,-,N/A,,Clear,160,2014-05-06 03:55:00
11:15 PM,86.0,48.7,27,29.67,10.0,SSE,18.4,23.0,N/A,,Clear,160,2014-05-06 04:15:00
11:35 PM,84.9,48.7,28,29.67,10.0,SSE,19.6,24.2,N/A,,Clear,160,2014-05-06 04:35:00